This demonstration page uses our WeatherBlox Daily Observations layout. Learn more.

Left ArrowRight Arrow

34.74481, -87.66753

Hourly Observations for September 16, 2019

Temp ( °F °C ) Dew Point ( °F °C ) Humidity (%) Winds ( mph kmh ) Pressure ( in mb ) Visibility ( mi km ) Precip ( " mm )
12:53 am 00:53 Clear 72 22.2 68 20 87 87 Calm 30.06 1018 10 16 0.00 0.00
1:53 am 01:53 Clear 73 22.8 69 20.6 87 87 Calm 30.06 1018 9 14 0.00 0.00
2:53 am 02:53 Clear 71 21.7 68 20 90 90 Calm 30.05 1018 7 11 0.00 0.00
3:53 am 03:53 Clear 70 21.1 66 18.9 87 87 Calm 30.06 1018 9 14 0.00 0.00
4:53 am 04:53 Clear with Mist and Fog 70 21.1 67 19.4 90 90 Calm 30.06 1018 6 10 0.00 0.00
5:53 am 05:53 Clear 68 20 65 18.3 90 90 Calm 30.07 1018 7 11 0.00 0.00
6:53 am 06:53 Sunny with Mist and Fog 68 20 66 18.9 93 93 Calm 30.09 1019 4 6 0.00 0.00
7:53 am 07:53 Sunny 74 23.3 69 20.6 85 85 Calm 30.10 1019 7 11 0.00 0.00
8:53 am 08:53 Sunny 80 26.7 70 21.1 71 71 Calm 30.11 1020 10 16 0.00 0.00
9:53 am 09:53 Sunny 86 30 70 21.1 59 59 Calm 30.10 1019 10 16 0.00 0.00
10:53 am 10:53 Sunny 92 33.3 69 20.6 47 47 ESE 5 7 30.10 1019 10 16 0.00 0.00
11:53 am 11:53 Sunny 96 35.6 66 18.9 37 37 NNW 7 11 30.08 1019 10 16 0.00 0.00
12:53 pm 12:53 Sunny 99 37.2 61 16.1 29 29 VRB 6 9 30.06 1018 10 16 0.00 0.00
1:53 pm 13:53 Sunny 99 37.2 62 16.7 30 30 VRB 6 9 30.04 1017 10 16 0.00 0.00
2:53 pm 14:53 Mostly Sunny 99 37.2 63 17.2 31 31 NW 6 9 30.01 1016 10 16 0.00 0.00
3:53 pm 15:53 Sunny 99 37.2 60 15.6 28 28 W 7 11 29.99 1016 10 16 0.00 0.00
4:53 pm 16:53 Mostly Sunny 99 37.2 60 15.6 28 28 NNW 5 7 29.99 1016 10 16 0.00 0.00
5:53 pm 17:53 Sunny 96 35.6 65 18.3 36 36 NW 6 9 29.98 1015 10 16 0.00 0.00
6:53 pm 18:53 Sunny 88 31.1 68 20 52 52 NW 5 7 29.98 1015 10 16 0.00 0.00
7:53 pm 19:53 Clear 84 28.9 68 20 59 59 NNW 3 6 29.99 1016 10 16 0.00 0.00
8:53 pm 20:53 Clear 81 27.2 69 20.6 67 67 NW 3 6 29.99 1016 10 16 0.00 0.00
9:53 pm 21:53 Clear 78 25.6 69 20.6 74 74 Calm 30.00 1016 10 16 0.00 0.00
10:53 pm 22:53 Clear 77 25 70 21.1 79 79 Calm 30.00 1016 10 16 0.00 0.00
11:53 pm 23:53 Clear 76 24.4 70 21.1 82 82 Calm 30.00 1016 10 16 0.00 0.00

Powered by AerisWeather